This is the latest recevied weather packets stored in our database for station/object KF4UQS-14. If no packets are shown the sender has not sent any weather packets the latest 1 day(s).
| Time | Temp. | Humidity | Pressure | Rain* | Wind** | Luminosity | Snow |
|---|---|---|---|---|---|---|---|
| 1778025487 | 21.67° C | 65% | 1015.3 hPa | 0 mm | 2.68 m/s, 195° | 2 W/m² | - |
| 1778025185 | 22.22° C | 65% | 1015.1 hPa | 0 mm | 3.13 m/s, 183° | 4 W/m² | - |
| 1778024881 | 22.22° C | 63% | 1015.3 hPa | 0 mm | 2.68 m/s, 185° | 7 W/m² | - |
| 1778024579 | 22.22° C | 63% | 1015.2 hPa | 0 mm | 3.13 m/s, 189° | 11 W/m² | - |
| 1778024276 | 22.78° C | 62% | 1015.1 hPa | 0 mm | 3.58 m/s, 203° | 17 W/m² | - |
| 1778023974 | 22.78° C | 62% | 1015 hPa | 0 mm | 3.58 m/s, 179° | 21 W/m² | - |
| 1778023670 | 22.78° C | 62% | 1015.3 hPa | 0 mm | 3.13 m/s, 200° | 24 W/m² | - |
| 1778023368 | 22.78° C | 61% | 1015.3 hPa | 0 mm | 4.92 m/s, 165° | 33 W/m² | - |
| 1778023064 | 23.33° C | 61% | 1015.1 hPa | 0 mm | 3.58 m/s, 195° | 50 W/m² | - |
| 1778022763 | 23.33° C | 61% | 1014.9 hPa | 0 mm | 2.68 m/s, 193° | 61 W/m² | - |
| 1778022461 | 23.33° C | 61% | 1014.8 hPa | 0 mm | 3.58 m/s, 198° | 60 W/m² | - |
| 1778022157 | 23.33° C | 60% | 1014.9 hPa | 0 mm | 2.68 m/s, 191° | 58 W/m² | - |
| 1778021854 | 23.33° C | 60% | 1014.7 hPa | 0 mm | 4.47 m/s, 189° | 77 W/m² | - |
| 1778021551 | 23.33° C | 60% | 1014.6 hPa | 0 mm | 2.24 m/s, 192° | 65 W/m² | - |
| 1778021246 | 23.89° C | 60% | 1014.8 hPa | 0 mm | 3.13 m/s, 181° | 70 W/m² | - |
| 1778020944 | 23.89° C | 59% | 1015 hPa | 0 mm | 4.47 m/s, 185° | 82 W/m² | - |
| 1778020642 | 23.89° C | 59% | 1015 hPa | 0 mm | 2.68 m/s, 187° | 78 W/m² | - |
| 1778020338 | 23.89° C | 59% | 1014.9 hPa | 0 mm | 2.68 m/s, 201° | 72 W/m² | - |
| 1778020034 | 23.89° C | 58% | 1014.8 hPa | 0 mm | 4.02 m/s, 227° | 64 W/m² | - |
| 1778019730 | 24.44° C | 58% | 1014.7 hPa | 0 mm | 2.68 m/s, 192° | 66 W/m² | - |
| 1778019428 | 24.44° C | 57% | 1014.9 hPa | 0 mm | 5.36 m/s, 175° | 81 W/m² | - |
| 1778019124 | 25° C | 55% | 1014.7 hPa | 0 mm | 4.02 m/s, 181° | 133 W/m² | - |
| 1778018821 | 25° C | 55% | 1014.7 hPa | 0 mm | 4.02 m/s, 185° | 159 W/m² | - |
| 1778018519 | 25.56° C | 54% | 1014.7 hPa | 0 mm | 4.02 m/s, 195° | 173 W/m² | - |
| 1778018216 | 25.56° C | 54% | 1014.8 hPa | 0 mm | 4.02 m/s, 182° | 220 W/m² | - |
* Rain latest hour (hover to see other rain measurements)
** Current wind speed in m/s (hover to see current wind gust speed)